This is the latest recevied weather packets stored in our database for station/object W8CEN. If no packets are shown the sender has not sent any weather packets the latest 10 day(s).
| Time | Temp. | Humidity | Pressure | Rain* | Wind** | Luminosity | Snow |
|---|---|---|---|---|---|---|---|
| 1777899218 | 14.44° C | 60% | 986.2 hPa | 0 mm | - | 295 W/m² | - |
| 1777898915 | 14.44° C | 61% | 986.2 hPa | 0 mm | - | 238 W/m² | - |
| 1777898612 | 13.89° C | 62% | 986.1 hPa | 0 mm | - | 255 W/m² | - |
| 1777898309 | 13.89° C | 64% | 986.1 hPa | 0 mm | - | 245 W/m² | - |
| 1777898006 | 13.33° C | 63% | 986.1 hPa | 0 mm | - | 114 W/m² | - |
| 1777897702 | 13.33° C | 64% | 986 hPa | 0 mm | - | 226 W/m² | - |
| 1777897399 | 12.78° C | 67% | 986.1 hPa | 0 mm | - | 219 W/m² | - |
| 1777897095 | 12.22° C | 67% | 986 hPa | 0 mm | - | 188 W/m² | - |
| 1777896791 | 12.22° C | 68% | 986 hPa | 0 mm | - | 88 W/m² | - |
| 1777896489 | 11.67° C | 67% | 986.2 hPa | 0 mm | - | 131 W/m² | - |
| 1777896186 | 11.67° C | 69% | 986.1 hPa | 0 mm | - | 112 W/m² | - |
| 1777895884 | 11.67° C | 70% | 985.8 hPa | 0 mm | - | 136 W/m² | - |
| 1777895581 | 10.56° C | 72% | 985.8 hPa | 0 mm | - | 113 W/m² | - |
| 1777895278 | 10.56° C | 73% | 986 hPa | 0 mm | - | 66 W/m² | - |
| 1777894976 | 10.56° C | 72% | 985.9 hPa | 0 mm | - | 50 W/m² | - |
| 1777894673 | 10.56° C | 73% | 985.8 hPa | 0 mm | - | 52 W/m² | - |
| 1777894370 | 10° C | 72% | 985.8 hPa | 0 mm | - | 50 W/m² | - |
| 1777894068 | 10° C | 73% | 985.8 hPa | 0 mm | - | 39 W/m² | - |
| 1777893764 | 10° C | 72% | 985.7 hPa | 0 mm | - | 48 W/m² | - |
| 1777893461 | 10° C | 73% | 985.5 hPa | 0 mm | - | 39 W/m² | - |
| 1777893157 | 10° C | 73% | 985.5 hPa | 0 mm | - | 33 W/m² | - |
| 1777892853 | 10° C | 73% | 985.6 hPa | 0 mm | - | 30 W/m² | - |
| 1777892550 | 9.44° C | 73% | 985.5 hPa | 0 mm | - | 29 W/m² | - |
| 1777892245 | 9.44° C | 74% | 985.4 hPa | 0 mm | - | 28 W/m² | - |
| 1777891942 | 9.44° C | 74% | 985.5 hPa | 0 mm | - | 23 W/m² | - |
* Rain latest hour (hover to see other rain measurements)
** Current wind speed in m/s (hover to see current wind gust speed)